DECAYED

COSMOS 2251 DEB, 34920 (Decayed)

Orbit data source: Space-Track

COSMOS 2251 DEB, 34920 was space debris in LEO originally from a launch on Wed, 16 Jun 1993 UTC launched from the Plesetsk Missile And Space Complex (PKMTR). The debris from Iridium 33, an American commercial communications satellite, has been tracked extensively since its accidental collision with the defunct Russian satellite Cosmos 2251 in 2009. This event, occurring at high speed in low Earth orbit (LEO), generated thousands of pieces of space debris, significantly increasing the risk of further collisions. The Iridium 33 debris cloud has impacted space traffic management and orbital debris mitigation strategies, making it a subject of ongoing study in space situational awareness.

Loading next visibility...
Identifier
34920, 1993-036ADR
Orbit
Decayed
Country
Flag of CISCIS
Related business
Manufacturer
Unknown
Mission
Decayed spacecraft
Bus & Motor
Unknown
Mass
Unknown
Launch date (UTC)
1993-06-16 (33 years ago)
Launch vehicle
Unknown
Launch site
Plesetsk Missile And Space Complex (PKMTR)
Object type
Payload
Rocket body
Debris
Shape & HBR
Unknown shape, 0.1 m
Radar Cross Section
Small (<0.1 m²)

Expand to show TLE details & history
Last TLE update: 9 months ago

TLE from 9 months ago
0 COSMOS 2251 DEB
1 34920U 93036ADR 25166.53853167  .00766031  00000-0  67227-2 0  9996
2 34920  73.9701   3.4264 0010700 196.1956 163.8925 15.66359650857438
Epoch: 2025-06-15T12:55Z
TLE epoch observation values (Epoch: 2025-06-15T12:55:29.136Z)
Latitude
-0.00001°
Longitude
-94.50719°
Altitude
379.032 km
Speed
7.679 km/s
True Right ascension
00h 13m 42s
True Declination
0° 00' 00"
Sunlit
Object was in daylight at epoch
Visualization orbit readout
Latitude
Unknown
Longitude
Unknown
Altitude
Unknown
Speed
Unknown
Apparent Right ascension
Unknown
Apparent Declination
Unknown
Sunlit
N/A
Visualization observer readout
Local Sidereal Time
19:23:18
Azimuth
Unknown
Elevation
Unknown
Doppler factor
Unknown
Orbital elements
Apogee altitude
374.036 km
Perigee altitude
359.602 km
Semi-major axis
6,744.956 km
Eccentricity
0.00107
Inclination
73.9701°
RAAN
3.4264°
Arg. of periapsis
196.1956°
True anomaly
163.92647°
Mean anomaly
163.8925°
Eccentric anomaly
163.90949°
Mean motion
3.91809 °/min
Orbital period
91.88 mins
BSTAR
0.0067227
Loading maneuver chart data...
Computing Atmospheric mass density...

Documentation

Showing up to 5 results
|